This is the latest recevied weather packets stored in our database for station/object WA7CUG. If no packets are shown the sender has not sent any weather packets the latest 10 day(s).
| Time | Temp. | Humidity | Pressure | Rain* | Wind** | Luminosity | Snow |
|---|---|---|---|---|---|---|---|
| 1777412325 | 21.67° C | 37% | 1017.8 hPa | 0 mm | - | 407 W/m² | - |
| 1777412020 | 22.22° C | 33% | 1017.7 hPa | 0 mm | - | 438 W/m² | - |
| 1777411719 | 21.67° C | 36% | 1017.6 hPa | 0 mm | - | 556 W/m² | - |
| 1777411415 | 21.67° C | 36% | 1017.8 hPa | 0 mm | - | 663 W/m² | - |
| 1777411109 | 21.11° C | 36% | 1017.8 hPa | 0 mm | - | 605 W/m² | - |
| 1777410809 | 21.11° C | 36% | 1017.8 hPa | 0 mm | - | 429 W/m² | - |
| 1777410508 | 20° C | 39% | 1017.8 hPa | 0 mm | - | 418 W/m² | - |
| 1777410202 | 21.11° C | 38% | 1017.8 hPa | 0 mm | - | 244 W/m² | - |
| 1777409898 | 21.67° C | 35% | 1017.9 hPa | 0 mm | - | 530 W/m² | - |
| 1777409593 | 22.78° C | 37% | 1018 hPa | 0 mm | - | 681 W/m² | - |
| 1777409288 | 21.67° C | 36% | 1017.7 hPa | 0 mm | - | 752 W/m² | - |
| 1777408985 | 20.56° C | 39% | 1017.9 hPa | 0 mm | - | 591 W/m² | - |
| 1777408682 | 21.11° C | 34% | 1017.9 hPa | 0 mm | - | 673 W/m² | - |
| 1777408377 | 20.56° C | 36% | 1017.8 hPa | 0 mm | - | 674 W/m² | - |
| 1777408077 | 20° C | 36% | 1017.6 hPa | 0 mm | - | 726 W/m² | - |
| 1777407773 | 20° C | 38% | 1017.9 hPa | 0 mm | - | 780 W/m² | - |
| 1777407469 | 19.44° C | 40% | 1017.8 hPa | 0 mm | - | 764 W/m² | - |
| 1777407164 | 19.44° C | 35% | 1018 hPa | 0 mm | - | 455 W/m² | - |
| 1777406859 | 19.44° C | 38% | 1018 hPa | 0 mm | - | 476 W/m² | - |
| 1777406555 | 19.44° C | 36% | 1018 hPa | 0 mm | - | 511 W/m² | - |
| 1777406250 | 19.44° C | 37% | 1018.2 hPa | 0 mm | - | 435 W/m² | - |
| 1777405949 | 18.89° C | 36% | 1018.3 hPa | 0 mm | - | 436 W/m² | - |
| 1777405646 | 18.89° C | 36% | 1018 hPa | 0 mm | - | 337 W/m² | - |
| 1777405344 | 18.89° C | 34% | 1018 hPa | 0 mm | - | 322 W/m² | - |
| 1777405039 | 18.89° C | 35% | 1018.3 hPa | 0 mm | - | 328 W/m² | - |
* Rain latest hour (hover to see other rain measurements)
** Current wind speed in m/s (hover to see current wind gust speed)